Showing default

IRNSS 1I, 43286

Orbit data source: Space-Track

IRNSS 1I, 43286 is a payload satellite owned by ISRO (IN) in GEO that was launched on Wed, 11 Apr 2018 UTC via a PSLV-XL launch vehicle from the Sirharikota (SRI). Payload-class satellites include a variety of spacecraft equipped with specific instruments for various scientific and technological missions. These include communications satellites like Starlink; space stations such as the ISS; scientific satellites like the Hubble; Earth observation satellites from companies like Planet Labs, Umbra, and HawkEye 360; GPS; miniature CubeSats for education and research; and military/defense satellites.

Not visible in the next 10 days
Identifier
43286, 2018-035A
Orbit
GEO
Last TLE update
1 day ago
Origin
Manufacturer
ISRO SAC/Banga
Mission
Operational Civil Navigation
Bus & Motor
I1K, ISRO LAM
Mass
1,425 kg wet, 598 kg dry
Launch date (UTC)
2018-04-11 (7 years ago)
Launch vehicle
PSLV-XL
Launch site
Sirharikota (SRI)
Object type
Payload
Rocket body
Debris
Shape & HBR
Box + 2 Pan, 10 m
Radar Cross Section
6.961 m², Large (>1 m²)

Expand to show TLE details & history

TLE from 1 day ago
0 IRNSS 1I
1 43286U 18035A   25185.79017231  .00000073  00000-0  00000-0 0  9991
2 43286  29.1860  79.6123 0017898 180.4254   2.5084  1.00276646 26599
Epoch: 2025-07-04T18:57Z
TLE epoch observation values (Epoch: 2025-07-04T18:57:50.887Z)
Latitude
-1.44996°
Longitude
54.71069°
Altitude
35,709.572 km
Speed
3.08 km/s
True Right ascension
17h 28m 50s
True Declination
-1° 26' 55"
Sunlit
Object was in daylight at epoch
Visualization orbit readout
Latitude
-10.84853°
Longitude
-147.91997°
Altitude
35,856.488 km
Speed
3.07 km/s
Apparent Right ascension
04h 05m 27s
Apparent Declination
-14° 34' 43"
Sunlit
Object is in daylight
Visualization observer readout
Local Sidereal Time
17:06:38
Azimuth
32.168° NE
Elevation
-61.343°
Doppler factor
1
Orbital elements
Apogee altitude
35,861.395 km
Perigee altitude
35,710.465 km
Semi-major axis
42,164.067 km
Eccentricity
0.00179
Inclination
29.186°
RAAN
79.6123°
Arg. of periapsis
180.4254°
True anomaly
Unknown
Mean anomaly
2.5084°
Eccentric anomaly
Unknown
Mean motion
0.25069 °/min
Orbital period
1,436.06 mins
BSTAR
0
Loading historical data...
43286 neighbors
Loading maneuver chart data...
Loading SW <> Apogee altitude chart data...
Loading historical data...
Loading historical data...
Loading historical data...
Loading historical data...
Loading historical data...
Loading historical data...
Loading historical data...
Other satellites on launch #35 in the year 2018 (2018-04-11 UTC)

IRNSS 1I Visibility

Observer location: undefined°, undefined°

IRNSS 1I is likely not visible in the next few days
Span
Click to sort rows by Start time (UTC) header in descending order
Start Az.
Max El. time (UTC)
Max El. Az.
Max El.
End time (UTC)
End Az.
|